Notices

What's New in latest Release from April 7th, 2021:

- Updated Glossary, including Speed of Maximum Gust, and Total Hourly Precipitation

- Updated national and regional climate services offices contacts and prices information

- Addition of station inventory lists for 1981-2010, 1971-2000, and 1961-1990 Normals.

If you haven't already, please take our survey and provide feedback about our website: https://eccc.sondage-survey.ca/f/LanguageSelection.aspx?s=442ca660-fcf1-47c0-95a9-59707d6fd709

Hourly Data Report for March 30, 2010

HALIFAX STANFIELD INT'L A
NOVA SCOTIA

44°52'48.060" N
63°30'00.050" W
145.40 m
8202250
71395
YHZ

Download Data

Hourly Data (March 2010)
Hourly Data Report for March 30, 2010
TIME
LST
Temp Definition
°C
Dew Point Definition
°C
Rel Hum Definition
%
Precip. Amount Definition
mm

Wind Dir Definition
10's deg

Wind Spd Definition
km/h
Visibility Definition
km
Stn Press Definition
kPa
Hmdx Definition


Wind Chill Definition


Weather Definition


00:00 4.4 2.9 90   16 37 16.1 100.19     Cloudy
01:00 4.8 3.1 89   16 37 16.1 100.14     Cloudy
02:00 5.1 3.5 89   16 35 16.1 100.04     Cloudy
03:00 5.6 4.0 89   17 33 16.1 100.00     Cloudy
04:00 5.8 4.3 90   18 32 9.7 100.01     Fog
05:00 5.8 4.6 92   16 28 9.7 99.99     Fog
06:00 6.0 5.0 93   18 28 4.8 100.02     Fog
07:00 6.4 5.4 93   18 26 9.7 100.11     Fog
08:00 7.1 5.6 90   16 20 12.9 100.13     Cloudy
09:00 8.3 6.3 87   17 22 12.9 100.17     Cloudy
10:00 9.3 7.0 86   17 19 16.1 100.23     Cloudy
11:00 10.6 7.7 82   17 22 16.1 100.25     Cloudy
12:00 10.9 7.9 82   17 26 16.1 100.22     Cloudy
13:00 10.8 7.6 81   16 17 16.1 100.20     Cloudy
14:00 11.1 7.8 80   15 19 12.9 100.19     Cloudy
15:00 10.4 7.0 79   15 19 12.9 100.15     Cloudy
16:00 10.6 6.9 78   14 20 16.1 100.14     Cloudy
17:00 9.8 6.5 80   14 13 16.1 100.14     Cloudy
18:00 9.3 6.4 82   12 19 16.1 100.16     Cloudy
19:00 8.4 6.2 86   13 13 16.1 100.12     Cloudy
20:00 8.2 6.0 86   13 24 19.3 100.08     Cloudy
21:00 8.2 6.4 88   13 24 19.3 100.02     Rain Showers
22:00 7.9 6.3 90   12 30 9.7 99.99     Rain Showers
23:00 8.2 6.5 89   9 17 16.1 99.94     Cloudy

Notes on Data Quality.

Legend

  • E = Estimated
  • M = Missing
  • NA = Not Available*
  • [empty] = Indicates an unobserved value
Date modified: